Strona główna
METAR-TAF:

METAR-TAF

Lotnisko :

Hallock Municipal Airport

Hallock, Minnesota, Stany Zjednoczone

Szerokość geograficzna: 48-45-10N, Długość geograficzna: 096-56-35W, wysokość: 250 m

Aktualna obserwacja pogody

Raport powstał 19 minut temu, godzina 03:56 UTC
Wiatr 10 kt od północno-północny zachód
Temperatura -21°C
Wilgotność 77%
Ciśnienie 1020 hPa
Widzialność: 16.1 km
bezchmurnie

METAR: KHCO 110356Z AUTO 33010KT 10SM CLR M21/M24 A3013 RMK AO2

czas: 22:15 (04:15 UTC)


TAF: brakujący

Obserwacja i prognoza pogody dla ponad 4000 lotnisk (raport METAR i TAF).

Dostępne stacje oznaczono żółtymi i czerwonymi punktami na mapie.

Najedź kursorem aby zobaczyć nazwę stacji.

Kliknij aby zobaczyć obserwacje i prognozy pogody.

Aby zmienić mapę: kliknij na zielony przycisk z czarnym krzyżykiem, aby powiększyć; na zielony przycisk z myślnikiem, aby pomniejszyć; na zielone strzałki, aby przejść do map sąsiednich.


METAR-TAF: